Notices

What's New in latest Release from April 7th, 2021:

- Updated Glossary, including Speed of Maximum Gust, and Total Hourly Precipitation

- Updated national and regional climate services offices contacts and prices information

- Addition of station inventory lists for 1981-2010, 1971-2000, and 1961-1990 Normals.

If you haven't already, please take our survey and provide feedback about our website: https://eccc.sondage-survey.ca/f/LanguageSelection.aspx?s=442ca660-fcf1-47c0-95a9-59707d6fd709

Hourly Data Report for November 01, 2019

SHEARWATER RCS
NOVA SCOTIA
Current Station Operator: ECCC - MSC

44°37'47.000" N
63°30'48.000" W
24.00 m
8205092
71264
AAW

Download Data

Hourly Data (November 2019)
Hourly Data Report for November 1, 2019
TIME
LST
Temp Definition
°C
Dew Point Definition
°C
Rel Hum Definition
%
Precip. Amount Definition
mm

Wind Dir Definition
10's deg

Wind Spd Definition
km/h
Visibility Definition
km
Stn Press Definition
kPa
Hmdx Definition


Wind Chill Definition


Weather Definition


00:00 15.8 13.9 89 0.0 20 32   101.04     LegendNANA
01:00 16.1 14.1 88 0.0 20 34   100.97     LegendNANA
02:00 16.2 14.0 87 0.0 20 30   100.92     LegendNANA
03:00 16.3 14.2 87 0.0 20 33   100.86     LegendNANA
04:00 16.9 14.7 87 0.0 20 34   100.80     LegendNANA
05:00 16.6 14.5 88 0.0 19 32   100.69     LegendNANA
06:00 17.1 14.6 86 0.0 20 33   100.63     LegendNANA
07:00 17.0 14.3 84 0.0 19 33   100.57     LegendNANA
08:00 16.7 14.2 85 0.0 19 33   100.54     LegendNANA
09:00 16.9 14.3 85 0.0 19 32   100.41     LegendNANA
10:00 17.2 14.4 84 0.0 19 38   100.27     LegendNANA
11:00 17.4 14.8 85 0.0 20 44   100.16     LegendNANA
12:00 16.4 14.8 90 0.0 20 42   100.08     LegendNANA
13:00 15.2 13.4 90 0.4 21 43   100.05     LegendNANA
14:00 13.8 11.7 87 0.3 22 39   100.16     LegendNANA
15:00 13.7 10.3 80 0.0 23 36   100.22     LegendNANA
16:00 13.1 8.6 74 0.0 23 31   100.32     LegendNANA
17:00 12.6 5.0 60 0.0 24 26   100.55     LegendNANA
18:00 11.1 3.6 60 0.0 24 21   100.73     LegendNANA
19:00 10.7 3.3 60 0.0 24 21   100.84     LegendNANA
20:00 10.1 3.5 63 0.0 24 16   100.96     LegendNANA
21:00 9.8 3.5 65 0.0 24 17   101.00     LegendNANA
22:00 9.9 3.6 65 0.0 24 17   101.05     LegendNANA
23:00 9.6 2.9 63 0.0 25 17   101.12     LegendNANA

Notes on Data Quality.

Legend

  • E = Estimated
  • M = Missing
  • NA = Not Available*
  • [empty] = Indicates an unobserved value
Date modified: